COSMOS 249 DEB, 18602

Orbit data source: Space-Track

COSMOS 249 DEB, 18602 is space debris in LEO originally from a launch on Sun, 20 Oct 1968 UTC launched from the Tyuratam Missile And Space Complex (TTMTR). Debris objects in space refer to the collection of defunct objects orbiting the Earth. Examples of debris include non-operational satellites, rocket bodies, and fragments generated from explosions, collisions, or faulty payload assembly.

Loading next visibility...
Identifier
18602, 1968-091DG
Orbit
LEO
Country
Flag of CISCIS
Related business
Manufacturer
Unknown
Mission
Spacecraft
Bus & Motor
Unknown
Mass
Unknown
Launch date (UTC)
1968-10-20 (58 years ago)
Launch vehicle
Unknown
Launch site
Tyuratam Missile And Space Complex (TTMTR)
Object type
Payload
Rocket body
Debris
Shape & HBR
Unknown shape, 0.1 m
Radar Cross Section
Medium (>0.1 m² and <1 m²)

Expand to show TLE details & history
Last TLE update: 1 day ago

TLE from 1 day ago
0 COSMOS 249 DEB
1 18602U 68091DG  26234.83549343  .00001403  00000-0  16448-2 0  9990
2 18602  62.2363  16.5453 0622001 269.6691 250.9037 13.09751004654231
Epoch: 2026-08-22T20:03Z
TLE epoch observation values (Epoch: 2026-08-22T20:03:06.632Z)
Latitude
22.84332°
Longitude
-88.12093°
Altitude
1,405.775 km
Speed
7.074 km/s
True Right ascension
12h 15m 11s
True Declination
22° 43' 51"
Sunlit
Object was in daylight at epoch
Visualization orbit readout
Latitude
Unknown
Longitude
Unknown
Altitude
Unknown
Speed
Unknown
Apparent Right ascension
Unknown
Apparent Declination
Unknown
Sunlit
N/A
Visualization observer readout
Local Sidereal Time
20:02:36
Azimuth
Unknown
Elevation
Unknown
Doppler factor
Unknown
Orbital elements
Apogee altitude
1,695.909 km
Perigee altitude
750.312 km
Semi-major axis
7,601.247 km
Eccentricity
0.0622
Inclination
62.2363°
RAAN
16.5453°
Arg. of periapsis
269.6691°
True anomaly
244.34983°
Mean anomaly
250.9037°
Eccentric anomaly
247.6086°
Mean motion
3.27503 °/min
Orbital period
109.92 mins
BSTAR
0.0016448
Loading maneuver chart data...
Computing Atmospheric mass density...

Documentation

Showing up to 5 results
|